Regional & State Weather Roundups


990 
ASUS41 KALY 151910
RWRALY
NEW YORK STATE HOURLY WEATHER ROUNDUP
NATIONAL WEATHER SERVICE ALBANY NY
200 PM EST FRI DEC 15 2017
NOTE: "FAIR" INDICATES FEW OR NO CLOUDS BELOW 12,000 FEET WITH NO
SIGNIFICANT WEATHER AND/OR NO OBSTRUCTIONS TO VISIBILITY.
NYZ032-033-038>043-046>054-057>066-NYZ062>081-082-084-152000-
EAST
  
CITY           SKY/WX    TMP DP  RH WIND       PRES   REMARKS
ALBANY         CLOUDY    21   8  57 S12       29.96F WCI   9          
GLENS FALLS    CLOUDY    19  10  68 SE5       29.95F WCI  12          
POUGHKEEPSIE   CLOUDY    23  10  57 CALM      29.96F                  
NEWBURGH       PTSUNNY   23  14  68 SW6       29.96F WCI  16          
MONTGOMERY     CLOUDY    23  11  60 CALM      29.94F                  
WHITE PLAINS   FLURRIES  26  12  55 NE3       29.93F                  
ISLIP          FLURRIES  31  20  63 N3        29.96F                  
NEW YORK CITY  CLOUDY    29   8  41 SW7       29.96F WCI  22          
CENTRAL PARK   CLOUDY    28  12  51 CALM      29.98F                  
$$
NYZ005>009-017-018-044>046-055-056-152000-
CENTRAL
  
CITY           SKY/WX    TMP DP  RH WIND       PRES   REMARKS
FULTON         CLOUDY    24  13  62 SW9       29.86F WCI  14          
SYRACUSE       CLOUDY    24  12  60 SW7       29.87F WCI  16          
ROME           CLOUDY    22  12  65 SE10      29.91F WCI  11          
ELMIRA         CLOUDY    25  14  63 S12       29.83F WCI  14          
BINGHAMTON     CLOUDY    18   9  68 S5        29.80F WCI  11          
MONTICELLO     LGT SNOW  19  12  73 SE3       29.86F                  
$$
NYZ026>034-041>043-087-152000-
NORTH
  
CITY           SKY/WX    TMP DP  RH WIND       PRES   REMARKS
WATERTOWN      CLOUDY    24  16  71 S8G18     29.85F WCI  15          
FORT DRUM      NOT AVBL                                               
OGDENSBURG     PTSUNNY   25  20  82 S3        29.85F HAZE             
MASSENA        LGT SNOW  19  13  77 CALM      29.89F                  
SARANAC LAKE   CLOUDY    18   9  68 SW13      29.77F WCI   5          
PLATTSBURGH    CLOUDY    23  13  65 SE13      29.90F WCI  11          
$$
NYZ001>004-010>016-019>021-085-152000-
WEST
  
CITY           SKY/WX    TMP DP  RH WIND       PRES   REMARKS
NIAGARA FALLS  LGT SNOW  27  19  72 SW13      29.78F WCI  16          
BUFFALO        CLOUDY    24  14  65 S13       29.79F WCI  12          
DUNKIRK        CLOUDY    24  13  62 S15       29.81F WCI  11          
JAMESTOWN      CLOUDY    20  11  68 SW12G17   29.76F WCI   8          
WELLSVILLE     CLOUDY    22  11  62 SW10      29.74F WCI  11          
ROCHESTER      CLOUDY    25  14  63 S12       29.83F WCI  14          
PENN YAN       CLOUDY    24  11  57 S5        29.82F WCI  18          
$$
             KEY
       WCI = WIND CHILL INDEX
       VSB = VISIBILITY
       HX  = HEAT INDEX
$$